Regional Weather Roundup
Issued by NWS Sioux Falls, SD

Home | Current Version | Previous Version | Graphics & Text | Print | Product List | Glossary Off
Versions: 1 2 3 4 5 6 7 8 9 10 11 12 13 14 15 16 17 18 19 20 21 22 23 24 25 26 27 28 29 30 31 32 33 34 35 36 37 38 39 40 41 42 43 44 45 46 47 48 49 50

941
ASUS43 KFSD 051510
RWRFSD

WEATHER ROUNDUP FOR SE SOUTH DAKOTA/SW MINNESOTA/NW IOWA
NATIONAL WEATHER SERVICE SIOUX FALLS SD
1000 AM CDT THU MAY 05 2016

NOTE: "FAIR" INDICATES FEW OR NO CLOUDS BELOW 12,000 FEET WITH NO
SIGNIFICANT WEATHER AND OR OBSTRUCTIONS TO VISIBILITY.


SDZ038>040-050-052>070-051600-
SOUTHEAST SOUTH DAKOTA

CITY           SKY/WX    TMP DP  RH WIND       PRES   REMARKS
BROOKINGS      SUNNY     63  43  48 S6        30.03S
CHAMBERLAIN    SUNNY     69  49  48 SW10      30.02S
HURON          SUNNY     65  46  50 S6        30.00S
MADISON        FAIR      64  41  42 SW13G22   30.04S
MITCHELL       SUNNY     67  45  45 SW7       30.03F
SIOUX FALLS    MOSUNNY   63  40  42 SW7       30.05S
WINNER         FAIR      68  46  45 SW12      30.02S
YANKTON        SUNNY     61  43  51 S5        30.06F
$$

MNZ071-072-080-081-089-090-097-098-051600-
SOUTHWEST MINNESOTA

CITY           SKY/WX    TMP DP  RH WIND       PRES   REMARKS
FAIRMONT       SUNNY     57  32  38 S9        30.08F
JACKSON        SUNNY     61  30  31 SW8       30.08F
LUVERNE        SUNNY     63  32  31 S6        30.07R
MARSHALL       SUNNY     69  35  28 SW8       30.04S
MONTEVIDEO     SUNNY     66  39  37 SW6       30.04F
PIPESTONE      SUNNY     64  34  32 SW8       30.05S
REDWOOD FALLS  SUNNY     63  34  33 S8        30.05F
TRACY          SUNNY     66  35  31 SW10      30.06S
WINDOM         SUNNY     63  34  34 CALM      30.07F
WORTHINGTON    SUNNY     62  35  36 SW8       30.08R
$$

IAZ001>003-012>014-020>022-031-032-NEZ013-014-SDZ071-051600-
NORTHWEST IOWA

CITY           SKY/WX    TMP DP  RH WIND       PRES   REMARKS
CHEROKEE       SUNNY     58  41  53 S3        30.09R
DENISON        SUNNY     59  43  55 CALM      30.08R
ESTHERVILLE    SUNNY     57  37  47 S8        30.08S
LE MARS        SUNNY     59  41  51 S6        30.08S
ORANGE CITY    SUNNY     61  37  41 SW3       30.07S
SHELDON        SUNNY     63  37  39 VRB5      30.07R
SIOUX CITY     SUNNY     61  45  55 CALM      30.08S
SPENCER        SUNNY     59  39  47 S6        30.09R
STORM LAKE     SUNNY     61  34  36 S7        30.09S
$$

ABBREVIATIONS USED IN REMARKS
   TC - TEMPERATURE IN CELSIUS
  WCI - WIND CHILL INDEX
   HX - HEAT INDEX
  VSB - VISIBILITY





USA.gov is the U.S. government's official web portal to all federal, state and local government web resources and services.